Wind_Speed
62 62 61 56 56 57 56 56 53 49 46 48 50 51 47 44 49 46 44 43 43 40 40 42 40 37 33 29 30 30 32 33 30 29 28 27 26 28 29 31 33 35 36 39
70 67 56 56 62 59 58 55 54 53 49 50 49 52 51 50 47 47 47 44 43 41 43 43 41 37 35 31 33 32 35 37 33 32 29 28 28 30 33 35 36 38 40 42
71 62 57 61 60 58 57 57 52 54 53 50 51 56 55 50 51 49 47 44 43 45 43 45 46 41 41 34 37 35 37 39 36 34 31 32 33 34 35 37 40 42 46 49
74 66 68 65 65 60 59 52 53 56 55 54 50 64 58 58 54 50 45 43 44 43 45 48 48 48 43 34 38 39 39 40 39 37 36 36 37 40 41 42 43 46 50 53
71 71 74 76 67 61 57 54 55 56 55 55 56 65 66 59 57 47 44 45 45 44 46 48 49 50 48 35 35 42 41 42 42 40 40 40 42 44 44 44 46 49 52 56
62 67 73 73 73 69 61 58 59 59 58 64 61 62 68 65 56 48 47 45 45 44 45 49 49 52 48 40 36 40 43 41 40 40 41 43 44 45 47 48 49 53 58 61
65 74 78 74 76 76 72 68 65 66 69 70 69 67 67 56 56 48 45 46 44 41 43 50 50 51 46 40 38 39 41 43 43 44 45 47 47 48 49 51 55 58 60 63
68 69 71 77 73 72 81 76 72 72 71 69 71 70 63 61 58 57 50 47 43 42 45 48 48 49 47 40 41 40 42 44 45 45 45 46 49 50 53 57 60 61 63 68
72 70 58 64 70 66 75 81 73 67 68 69 70 66 66 64 61 58 53 46 44 43 46 47 47 49 46 41 43 43 44 44 45 45 46 47 51 54 56 60 61 64 69 73
71 78 76 67 59 69 73 73 68 67 68 70 73 71 72 69 64 58 55 50 50 49 45 47 47 44 42 41 43 44 45 45 45 47 50 52 56 58 59 61 64 68 74 76
73 84 83 83 79 65 72 77 83 75 65 65 71 74 67 66 67 63 61 57 52 47 50 49 46 41 41 38 41 44 45 46 49 52 53 56 56 57 59 62 66 72 75 77
78 74 83 82 79 73 68 77 76 72 69 70 68 73 69 69 69 66 63 58 53 40 43 46 47 42 41 41 40 44 47 51 54 55 56 55 57 58 60 63 70 73 75 78
66 69 70 63 65 80 63 72 81 83 78 79 74 67 60 68 67 63 58 53 48 48 50 51 48 45 44 45 44 46 50 52 54 55 56 56 57 58 62 68 72 74 76 80
59 64 67 80 80 75 69 70 62 65 72 86 82 67 71 72 68 65 63 56 57 59 60 59 48 49 45 46 47 50 52 53 55 56 55 55 58 61 68 69 72 74 78 77
62 66 69 71 73 72 69 63 71 77 74 77 72 70 66 69 68 62 63 63 63 64 61 47 46 46 44 47 48 50 53 55 54 53 54 57 62 65 66 70 73 75 74 73
53 46 41 57 63 67 71 61 65 71 73 75 73 75 68 75 74 67 61 59 56 52 48 45 45 45 46 48 50 52 54 54 52 54 57 60 61 65 68 70 72 72 72 72
60 55 46 47 48 50 59 56 50 53 57 61 64 58 59 58 54 55 54 50 49 46 41 40 36 38 48 47 48 51 51 52 55 56 56 59 63 66 67 68 69 69 70 75
67 61 69 54 42 42 44 41 44 48 47 46 45 45 51 47 46 51 49 49 44 40 35 40 40 38 41 45 48 49 51 52 53 54 57 61 64 65 64 66 65 68 74 80
66 57 59 55 52 51 37 34 41 39 34 30 33 39 45 47 51 48 46 43 41 35 33 41 45 46 44 45 49 51 52 53 54 57 59 60 61 62 61 62 66 72 78 83
66 60 62 61 61 58 48 38 39 40 34 28 32 33 35 36 40 37 36 33 29 30 36 41 42 44 46 48 49 50 53 55 57 57 58 58 59 58 58 62 70 76 82 82
47 60 60 57 56 55 44 41 39 35 27 31 32 30 39 36 31 30 27 31 34 36 38 38 37 40 44 47 50 52 54 55 55 56 55 56 57 57 60 68 72 77 70 52
38 51 55 58 63 65 52 43 35 32 30 32 34 31 32 34 35 36 36 35 35 37 38 39 40 42 45 48 51 52 52 52 53 53 53 55 56 60 66 69 67 54 43 44
31 38 43 47 55 45 49 49 49 49 36 33 34 32 33 33 31 30 32 32 35 36 38 42 45 46 50 49 49 49 49 50 50 51 53 55 61 66 68 60 43 37 36 32
34 22 27 37 42 51 50 51 59 63 58 48 48 42 41 38 29 25 24 27 33 40 40 42 45 44 46 46 46 48 48 47 48 51 54 59 62 59 56 42 33 31 26 25
46 42 38 36 40 47 49 52 58 54 52 51 47 43 36 29 28 29 29 28 30 36 40 40 42 44 43 44 45 46 46 47 48 51 56 55 49 34 34 30 31 22 23 24
53 35 32 30 38 45 43 48 53 50 45 43 52 49 42 39 37 34 36 37 39 41 41 44 45 45 44 44 44 43 45 46 50 55 54 48 33 21 23 27 22 18 18 12
Wind_Direction
242 244 241 245 247 249 248 248 249 249 247 245 247 249 249 247 252 257 262 266 269 275 279 282 293 303 311 283 257 256 258 262 265 264 263 267 274 276 278 279 279 279 278 278
240 239 244 245 244 245 248 249 249 251 251 250 249 250 253 252 254 260 261 265 270 277 279 285 289 300 303 295 258 255 258 261 261 261 262 266 269 274 278 279 280 277 277 279
246 242 247 249 248 247 249 252 253 255 254 254 254 252 253 253 254 255 260 265 271 276 282 287 290 295 301 291 257 252 255 257 257 257 260 265 270 272 274 279 280 277 278 279
242 237 239 242 245 245 246 249 252 254 254 254 252 255 246 250 251 254 258 266 269 275 282 289 291 295 300 288 254 248 252 253 254 256 259 263 268 273 275 278 279 276 276 279
241 242 242 238 239 246 246 249 251 253 254 253 248 252 253 250 251 254 259 263 268 274 284 288 289 292 297 287 259 247 249 250 253 256 260 264 267 272 277 278 280 280 280 280
238 240 243 243 242 244 246 250 248 250 250 249 248 250 251 257 257 258 257 261 266 273 283 287 288 292 292 286 271 253 249 251 252 258 260 264 269 273 276 277 278 279 282 285
247 246 244 242 242 241 243 243 244 245 245 247 248 246 253 257 262 260 258 260 265 273 274 282 287 290 290 285 275 260 253 253 256 259 263 267 271 274 276 277 280 283 287 287
247 245 245 240 241 248 245 245 244 246 247 249 249 252 253 261 264 265 262 261 264 270 271 279 285 289 288 283 275 260 256 256 258 263 269 273 275 275 273 276 282 288 289 289
247 244 245 241 243 244 247 241 246 251 251 252 252 255 256 257 259 261 262 266 268 275 279 283 282 286 283 277 268 261 256 258 261 266 269 269 270 272 278 282 286 287 290 292
243 244 242 247 255 249 244 243 246 246 247 249 252 253 252 257 260 263 267 271 273 274 281 283 283 282 276 272 265 261 256 256 260 264 267 272 275 278 281 284 288 292 294 292
245 245 250 249 249 258 254 247 241 242 244 248 251 251 252 256 261 265 266 268 271 274 282 279 277 277 270 266 261 257 256 258 262 266 270 273 277 282 284 288 290 290 289 291
244 249 247 253 252 258 259 248 246 248 247 250 254 253 257 258 262 265 267 270 274 272 278 277 278 277 267 261 255 253 255 259 263 267 271 276 280 284 286 287 288 288 290 292
238 236 242 243 243 245 257 251 245 243 244 244 244 249 249 256 259 263 267 273 277 273 274 280 280 276 263 259 259 257 258 262 266 271 274 278 282 284 286 287 289 292 293 294
234 236 242 243 247 248 262 255 238 243 246 247 246 250 253 255 258 265 269 274 274 270 273 277 274 269 262 257 259 259 262 266 269 273 277 280 283 285 288 289 291 291 294 297
237 246 248 248 246 250 255 259 247 244 247 244 251 252 253 258 262 265 268 268 273 274 272 266 267 266 261 258 259 263 265 267 270 275 279 282 284 287 289 290 290 294 298 301
226 243 235 242 243 249 259 250 247 246 248 251 249 250 251 252 254 264 270 269 268 265 264 268 268 263 259 259 261 263 266 269 275 279 281 284 287 288 289 291 295 300 302 304
228 232 231 235 238 240 243 241 245 245 245 248 250 251 259 259 255 259 262 261 257 255 264 262 254 252 255 258 259 261 266 271 275 280 285 288 289 290 291 296 300 301 304 306
219 228 236 232 232 243 241 243 242 246 249 251 251 251 252 252 255 256 250 250 254 260 262 252 241 240 248 251 255 264 269 275 281 285 287 288 291 293 297 299 301 306 308 305
209 218 233 229 240 243 238 249 241 245 247 259 252 246 247 246 249 247 249 255 262 255 242 239 235 242 249 254 261 267 273 278 282 286 288 292 292 293 297 302 305 306 305 306
213 220 220 230 241 242 244 250 246 254 245 249 251 245 242 247 247 249 258 255 240 238 242 244 243 247 252 259 267 272 275 278 282 288 290 290 292 296 301 304 305 306 307 313
238 225 229 229 239 242 236 245 244 240 242 255 261 253 252 250 250 245 240 242 246 240 240 250 254 257 260 264 268 271 275 280 286 288 289 291 293 298 302 303 306 309 317 312
234 222 224 226 223 227 237 241 262 248 243 253 260 253 254 250 250 246 244 251 253 248 249 256 260 262 265 267 270 275 282 285 285 286 287 291 297 298 299 305 314 319 309 307
236 235 228 229 224 234 251 248 252 255 253 260 276 272 267 262 256 253 254 257 256 256 256 258 262 265 266 269 276 281 282 280 282 285 290 293 295 297 304 316 319 305 302 308
221 232 243 242 245 246 246 250 250 257 263 267 271 278 273 267 258 254 260 266 264 259 259 263 266 270 271 273 276 276 276 279 283 286 289 293 300 308 313 322 306 301 302 300
230 247 245 244 244 241 240 246 254 260 267 272 271 258 247 246 254 263 275 268 268 264 263 264 265 267 269 271 271 272 276 279 283 285 290 300 309 303 304 308 298 297 297 310
234 244 245 248 247 243 242 242 247 252 259 255 252 251 255 255 262 267 262 264 262 257 257 262 266 267 268 267 269 273 275 278 283 289 297 305 300 282 299 298 297 300 309 324
Height
5728 5733 5745 5760 5762 5763 5766 5770 5777 5785 5788 5790 5792 5792 5798 5804 5801 5805 5807 5808 5810 5812 5813 5813 5810 5809 5809 5806 5804 5803 5803 5803 5804 5804 5804 5805 5805 5805 5804 5803 5802 5801 5801 5800
5715 5724 5745 5746 5746 5749 5754 5760 5766 5770 5777 5779 5783 5782 5786 5789 5795 5795 5796 5798 5801 5803 5802 5803 5804 5801 5801 5800 5798 5796 5797 5797 5797 5797 5796 5797 5798 5797 5796 5795 5794 5793 5792 5790
5702 5729 5730 5730 5735 5739 5746 5750 5758 5760 5763 5769 5768 5770 5774 5781 5781 5784 5787 5790 5793 5792 5791 5791 5791 5793 5792 5790 5790 5788 5789 5790 5790 5790 5789 5789 5788 5788 5788 5786 5785 5784 5782 5780
5686 5713 5712 5714 5717 5727 5732 5744 5744 5745 5747 5753 5758 5749 5762 5764 5769 5774 5780 5783 5782 5782 5781 5780 5778 5778 5781 5780 5780 5778 5780 5781 5782 5782 5781 5779 5779 5779 5777 5777 5775 5774 5772 5768
5686 5696 5698 5698 5713 5718 5725 5728 5730 5733 5733 5736 5745 5737 5741 5753 5756 5769 5773 5773 5773 5772 5771 5769 5768 5767 5767 5768 5769 5770 5770 5772 5772 5772 5772 5771 5769 5769 5768 5766 5765 5763 5760 5756
5674 5682 5675 5692 5702 5701 5710 5712 5714 5716 5718 5717 5735 5730 5724 5736 5751 5759 5760 5763 5763 5764 5763 5760 5757 5756 5756 5756 5758 5760 5761 5760 5760 5760 5760 5759 5758 5757 5757 5755 5752 5748 5745 5741
5666 5660 5664 5677 5683 5688 5692 5694 5694 5698 5697 5703 5710 5713 5710 5733 5735 5746 5749 5751 5754 5755 5754 5752 5749 5746 5744 5744 5746 5748 5749 5749 5749 5748 5748 5747 5747 5745 5743 5741 5738 5735 5732 5727
5640 5642 5652 5667 5672 5679 5679 5679 5680 5681 5685 5698 5693 5701 5715 5723 5727 5728 5733 5738 5743 5744 5744 5743 5740 5736 5733 5733 5734 5735 5736 5737 5737 5736 5736 5735 5734 5733 5730 5727 5724 5721 5715 5710
5627 5629 5646 5649 5657 5661 5660 5653 5683 5671 5676 5679 5683 5697 5700 5707 5711 5715 5722 5726 5729 5732 5732 5732 5729 5725 5722 5721 5722 5723 5724 5724 5725 5725 5725 5722 5721 5718 5716 5713 5709 5705 5699 5693
5616 5618 5626 5636 5637 5635 5636 5659 5656 5654 5660 5664 5671 5682 5687 5692 5698 5705 5709 5714 5716 5719 5721 5719 5716 5713 5710 5709 5711 5711 5712 5712 5713 5712 5710 5708 5706 5704 5701 5699 5695 5690 5683 5676
5605 5601 5610 5614 5613 5625 5631 5632 5632 5641 5647 5653 5661 5664 5678 5682 5684 5690 5695 5700 5705 5706 5707 5705 5702 5700 5699 5698 5699 5699 5700 5700 5699 5697 5696 5694 5693 5691 5688 5684 5679 5674 5667 5659
5585 5586 5591 5591 5609 5613 5613 5616 5622 5623 5638 5644 5650 5650 5665 5668 5670 5674 5678 5685 5691 5692 5693 5691 5688 5688 5688 5686 5686 5687 5688 5687 5685 5684 5683 5682 5680 5678 5674 5670 5664 5656 5649 5640
5569 5560 5573 5581 5584 5587 5594 5601 5605 5615 5618 5621 5632 5640 5660 5650 5656 5662 5667 5673 5677 5677 5676 5675 5677 5675 5675 5674 5675 5675 5674 5674 5673 5672 5671 5669 5667 5664 5659 5653 5645 5639 5632 5624
5549 5550 5552 5560 5575 5592 5586 5589 5594 5597 5598 5609 5612 5635 5637 5641 5646 5650 5655 5659 5659 5658 5660 5664 5664 5661 5662 5662 5662 5662 5662 5662 5660 5659 5658 5656 5652 5647 5642 5636 5629 5623 5616 5608
5533 5533 5543 5552 5565 5565 5572 5571 5577 5581 5588 5591 5608 5613 5628 5631 5631 5635 5640 5641 5644 5644 5644 5648 5648 5648 5648 5648 5648 5648 5648 5647 5646 5646 5644 5641 5636 5631 5625 5620 5615 5608 5598 5590
5520 5522 5531 5534 5547 5552 5553 5556 5560 5565 5573 5579 5590 5594 5612 5608 5615 5620 5625 5627 5628 5628 5629 5631 5633 5634 5634 5634 5635 5635 5635 5634 5634 5632 5628 5624 5620 5614 5611 5606 5599 5591 5583 5575
5502 5510 5515 5519 5535 5539 5531 5542 5546 5553 5560 5565 5567 5587 5594 5597 5603 5606 5608 5609 5611 5614 5616 5617 5618 5618 5619 5621 5622 5621 5621 5620 5619 5616 5613 5609 5605 5601 5595 5589 5582 5576 5568 5559
5490 5498 5505 5509 5516 5511 5531 5532 5537 5541 5546 5552 5560 5568 5571 5579 5585 5588 5591 5594 5598 5600 5601 5602 5603 5604 5605 5606 5606 5606 5606 5606 5604 5601 5598 5595 5591 5587 5580 5574 5568 5562 5554 5543
5474 5485 5493 5497 5501 5507 5517 5523 5527 5531 5538 5543 5548 5554 5557 5561 5565 5573 5579 5583 5583 5584 5587 5588 5589 5590 5592 5593 5593 5593 5594 5593 5591 5588 5584 5581 5576 5571 5564 5560 5553 5547 5538 5528
5469 5472 5481 5484 5490 5498 5511 5513 5518 5519 5524 5536 5538 5542 5544 5548 5554 5567 5566 5565 5567 5571 5574 5576 5577 5579 5580 5581 5581 5582 5582 5580 5577 5573 5570 5565 5562 5556 5551 5547 5540 5531 5523 5513
5455 5460 5465 5474 5480 5490 5498 5504 5508 5513 5528 5521 5524 5531 5530 5537 5548 5551 5548 5552 5556 5558 5561 5563 5566 5568 5570 5570 5570 5570 5569 5567 5564 5560 5556 5552 5547 5542 5539 5533 5525 5516 5508 5498
5446 5452 5457 5463 5472 5480 5491 5495 5503 5507 5505 5509 5514 5522 5524 5527 5531 5537 5539 5542 5545 5548 5551 5553 5555 5556 5557 5557 5558 5557 5556 5555 5551 5546 5542 5538 5534 5530 5525 5517 5509 5502 5497 5490
5440 5444 5446 5456 5467 5475 5479 5486 5489 5491 5495 5500 5504 5509 5513 5516 5520 5523 5527 5530 5534 5536 5540 5541 5543 5544 5545 5545 5545 5545 5543 5540 5535 5532 5529 5525 5520 5515 5509 5503 5497 5493 5488 5482
5427 5433 5439 5445 5455 5462 5467 5471 5476 5482 5486 5491 5494 5499 5502 5505 5508 5511 5515 5518 5521 5524 5526 5528 5530 5531 5532 5533 5534 5531 5528 5525 5523 5520 5516 5512 5505 5499 5495 5492 5488 5484 5480 5474
5421 5424 5433 5438 5447 5452 5458 5462 5465 5469 5475 5479 5484 5489 5490 5493 5497 5500 5504 5508 5510 5512 5514 5516 5517 5519 5520 5520 5518 5516 5514 5513 5511 5507 5502 5498 5493 5489 5487 5484 5479 5478 5472 5469
5417 5423 5427 5431 5433 5437 5443 5448 5453 5459 5464 5466 5472 5476 5479 5483 5486 5490 5494 5497 5500 5502 5504 5505 5506 5506 5505 5504 5503 5502 5502 5500 5498 5495 5490 5486 5483 5482 5479 5476 5474 5471 5469 5465